FW6665 Weather Reports


time (UTC)temp
F
wind
direction
speed
knots
gust
knots
rain 1hr
in
rain 24hr
in
rain mn
in
humidity
%
barometer
mb
20260509233205 52 85 0.0 2.6 0.00 0.00 0.00 75 1015.3
20260509232204 53 86 0.0 2.6 0.00 0.00 0.00 75 1015.5
20260509231704 53 97 0.0 1.7 0.00 0.00 0.00 74 1015.4
20260509230705 53 97 0.0 1.7 0.00 0.00 0.00 73 1015.5
20260509230204 53 97 0.0 1.7 0.00 0.00 0.00 72 1015.4
20260509225704 53 97 0.0 0.9 0.00 0.00 0.00 72 1015.5
20260509225205 53 97 0.0 0.9 0.00 0.00 0.00 71 1015.4
20260509224704 53 97 0.0 0.9 0.00 0.00 0.00 71 1015.3
20260509223204 53 97 0.0 1.7 0.00 0.00 0.00 70 1015.3
20260509222706 53 97 0.0 1.7 0.00 0.00 0.00 69 1015.2
20260509222204 54 97 0.0 1.7 0.00 0.00 0.00 69 1015.2
20260509221704 54 96 0.0 1.7 0.00 0.00 0.00 68 1015.3
20260509221205 54 97 0.0 1.7 0.00 0.00 0.00 67 1015.2
20260509220705 54 97 0.0 1.7 0.00 0.00 0.00 67 1015.4
20260509220204 54 97 0.0 1.7 0.00 0.00 0.00 66 1015.3
20260509215704 54 96 0.0 0.9 0.00 0.00 0.00 66 1015.3
20260509215205 54 96 0.0 0.9 0.00 0.00 0.00 65 1015.3
20260509214705 54 96 0.0 0.9 0.00 0.00 0.00 65 1015.3
20260509214205 54 96 0.0 0.9 0.00 0.00 0.00 64 1015.4
20260509213705 54 96 0.0 0.9 0.00 0.00 0.00 63 1015.3
20260509213204 55 96 0.0 0.9 0.00 0.00 0.00 63 1015.3
20260509212704 55 96 0.0 0.9 0.00 0.00 0.00 63 1015.2
20260509212205 55 96 0.0 0.9 0.00 0.00 0.00 62 1015.2
20260509211705 55 96 0.0 0.9 0.00 0.00 0.00 62 1015.2
20260509211204 55 96 0.0 0.9 0.00 0.00 0.00 61 1015.1
20260509210704 55 96 0.0 0.9 0.00 0.00 0.00 61 1015.0
20260509210204 55 96 0.0 0.9 0.00 0.00 0.00 60 1014.8
20260509204704 56 96 0.0 1.7 0.00 0.00 0.00 59 1014.9
20260509204204 56 96 0.0 1.7 0.00 0.00 0.00 59 1014.9
20260509203205 56 96 0.0 0.9 0.00 0.00 0.00 59 1014.8
20260509202704 56 96 0.0 0.9 0.00 0.00 0.00 58 1014.7
20260509202206 56 96 0.0 0.9 0.00 0.00 0.00 58 1014.8
20260509201704 57 96 0.0 1.7 0.00 0.00 0.00 58 1014.7
20260509201205 57 96 0.0 1.7 0.00 0.00 0.00 57 1014.8
20260509200704 57 96 0.0 2.6 0.00 0.00 0.00 57 1014.7
20260509200204 57 96 0.0 2.6 0.00 0.00 0.00 57 1014.7
20260509195704 57 96 0.0 2.6 0.00 0.00 0.00 57 1014.7
20260509195204 57 106 0.9 1.7 0.00 0.00 0.00 57 1014.7
20260509194704 57 106 0.0 1.7 0.00 0.00 0.00 56 1014.6
20260509194203 58 106 0.0 3.5 0.00 0.00 0.00 56 1014.7
20260509193704 58 104 0.0 3.5 0.00 0.00 0.00 55 1014.6
20260509193205 58 104 0.0 3.5 0.00 0.00 0.00 54 1014.4
20260509192704 58 103 0.9 3.5 0.00 0.00 0.00 53 1014.4
20260509192205 58 103 0.9 3.5 0.00 0.00 0.00 52 1014.4
20260509191704 59 166 0.0 3.5 0.00 0.00 0.00 51 1014.4
20260509191205 59 168 0.0 3.5 0.00 0.00 0.00 50 1014.5
20260509190204 60 134 0.9 3.5 0.00 0.00 0.00 49 1014.4
20260509185704 60 133 0.9 3.5 0.00 0.00 0.00 49 1014.4
20260509185206 60 109 0.9 3.5 0.00 0.00 0.00 49 1014.4
20260509184705 61 106 0.0 2.6 0.00 0.00 0.00 48 1014.5
20260509184205 61 107 0.9 4.3 0.00 0.00 0.00 48 1014.4
20260509183705 61 103 0.9 4.3 0.00 0.00 0.00 49 1014.3
20260509183204 61 106 0.0 4.3 0.00 0.00 0.00 49 1014.3
20260509182709 61 106 0.9 2.6 0.00 0.00 0.00 48 1014.3
20260509181705 62 135 0.9 2.6 0.00 0.00 0.00 48 1014.3
20260509181205 62 130 0.9 2.6 0.00 0.00 0.00 48 1014.3
20260509180705 63 144 0.9 2.6 0.00 0.00 0.00 48 1014.3
20260509180204 63 142 0.9 3.5 0.00 0.00 0.00 47 1014.1
20260509175705 63 118 0.9 3.5 0.00 0.00 0.00 47 1014.0
20260509174205 64 97 0.9 5.2 0.00 0.00 0.00 47 1013.9
20260509173704 64 118 0.9 3.5 0.00 0.00 0.00 46 1014.0
20260509173214 64 128 1.7 2.6 0.00 0.00 0.00 46 1014.0
20260509172705 64 125 0.9 2.6 0.00 0.00 0.00 46 1014.0
20260509171704 64 89 0.9 4.3 0.00 0.00 0.00 46 1014.1
20260509171204 65 94 1.7 5.2 0.00 0.00 0.00 44 1014.1
20260509170705 65 164 0.9 5.2 0.00 0.00 0.00 44 1014.2
20260509170205 65 107 0.9 5.2 0.00 0.00 0.00 43 1014.2
20260509165704 66 140 0.9 4.3 0.00 0.00 0.00 42 1014.3
20260509165204 66 116 1.7 4.3 0.00 0.00 0.00 40 1014.3
20260509164705 67 162 0.9 4.3 0.00 0.00 0.00 41 1014.2
20260509164204 67 107 0.9 3.5 0.00 0.00 0.00 41 1014.1
20260509163714 67 83 1.7 2.6 0.00 0.00 0.00 41 1014.0
20260509162204 68 94 0.9 8.7 0.00 0.00 0.00 43 1014.1
20260509161204 68 42 1.7 8.7 0.00 0.00 0.00 42 1014.2
20260509160704 69 134 1.7 5.2 0.00 0.00 0.00 41 1014.3
20260509160204 69 141 1.7 4.3 0.00 0.00 0.00 42 1014.4
20260509155705 69 158 1.7 4.3 0.00 0.00 0.00 42 1014.3
20260509155204 69 113 0.9 6.1 0.00 0.00 0.00 42 1014.3
20260509154705 69 197 1.7 6.1 0.00 0.00 0.00 40 1014.3
20260509154204 69 128 0.9 6.1 0.00 0.00 0.00 41 1014.3
20260509153703 69 100 2.6 5.2 0.00 0.00 0.00 39 1014.3
20260509153204 69 113 0.9 5.2 0.00 0.00 0.00 40 1014.4
20260509152203 70 78 0.9 3.5 0.00 0.00 0.00 42 1014.5
20260509151705 70 142 0.9 3.5 0.00 0.00 0.00 44 1014.5
20260509151203 70 109 0.9 4.3 0.00 0.00 0.00 44 1014.4
20260509150205 69 85 0.9 7.8 0.00 0.00 0.00 45 1014.4
20260509145705 70 142 0.9 7.8 0.00 0.00 0.00 45 1014.3
20260509145204 70 111 0.9 4.3 0.00 0.00 0.00 44 1014.2
20260509144709 70 117 0.9 4.3 0.00 0.00 0.00 44 1014.3
20260509144205 70 144 0.9 5.2 0.00 0.00 0.00 44 1014.1
20260509143205 70 107 1.7 3.5 0.00 0.00 0.00 43 1013.9
20260509142704 70 127 1.7 3.5 0.00 0.00 0.00 41 1013.9
20260509142204 70 144 1.7 3.5 0.00 0.00 0.00 41 1013.9
20260509141705 71 133 1.7 3.5 0.00 0.00 0.00 41 1013.9
20260509141205 71 121 0.9 3.5 0.00 0.00 0.00 42 1014.0
20260509140705 71 173 0.9 3.5 0.00 0.00 0.00 44 1014.0
20260509140205 71 92 0.9 3.5 0.00 0.00 0.00 43 1014.0
20260509135704 71 97 1.7 3.5 0.00 0.00 0.00 42 1014.0
20260509135205 71 75 0.9 3.5 0.00 0.00 0.00 43 1014.1
20260509134704 71 87 0.9 3.5 0.00 0.00 0.00 43 1014.1
20260509134205 71 79 0.9 3.5 0.00 0.00 0.00 42 1014.0
20260509133704 71 110 1.7 8.7 0.00 0.00 0.00 42 1014.0
20260509133204 70 137 0.9 8.7 0.00 0.00 0.00 44 1014.0
20260509132704 71 99 0.9 8.7 0.00 0.00 0.00 44 1014.0
20260509132205 71 133 1.7 6.1 0.00 0.00 0.00 43 1014.1
20260509131704 70 116 0.9 7.8 0.00 0.00 0.00 45 1014.0
20260509131205 71 54 1.7 7.8 0.00 0.00 0.00 43 1014.1
20260509130704 71 133 0.9 7.8 0.00 0.00 0.00 42 1014.2
20260509130204 71 140 1.7 3.5 0.00 0.00 0.00 42 1014.2
20260509125704 71 125 1.7 4.3 0.00 0.00 0.00 44 1014.2
20260509125205 71 124 0.9 4.3 0.00 0.00 0.00 42 1014.4
20260509124705 71 151 0.9 4.3 0.00 0.00 0.00 45 1014.4
20260509124204 71 159 0.9 4.3 0.00 0.00 0.00 43 1014.5
20260509123705 70 121 1.7 3.5 0.00 0.00 0.00 45 1014.5
20260509123204 70 63 0.0 4.3 0.00 0.00 0.00 46 1014.5
20260509122204 69 79 1.7 4.3 0.00 0.00 0.00 46 1014.6
20260509121703 69 141 1.7 3.5 0.00 0.00 0.00 45 1014.7
20260509121204 69 68 0.9 2.6 0.00 0.00 0.00 45 1014.8
20260509120704 69 235 0.9 4.3 0.00 0.00 0.00 45 1014.8
20260509115704 69 107 0.9 4.3 0.00 0.00 0.00 47 1014.9
20260509115204 69 131 1.7 3.5 0.00 0.00 0.00 48 1014.9
20260509114714 69 148 0.9 3.5 0.00 0.00 0.00 47 1014.9
20260509114205 69 134 0.9 5.2 0.00 0.00 0.00 48 1014.9
20260509113710 69 134 0.9 5.2 0.00 0.00 0.00 47 1014.9
20260509113204 69 102 1.7 5.2 0.00 0.00 0.00 46 1015.1
20260509112705 69 130 0.9 5.2 0.00 0.00 0.00 47 1015.1
20260509111704 68 56 0.0 3.5 0.00 0.00 0.00 48 1015.2
20260509111205 69 113 1.7 3.5 0.00 0.00 0.00 46 1015.2
20260509110703 69 128 0.9 3.5 0.00 0.00 0.00 49 1015.2
20260509105704 68 110 0.9 2.6 0.00 0.00 0.00 48 1015.2
20260509104705 69 164 1.7 4.3 0.00 0.00 0.00 49 1015.4
20260509104204 69 130 0.9 4.3 0.00 0.00 0.00 51 1015.5
20260509103707 69 111 0.0 3.5 0.00 0.00 0.00 52 1015.5
20260509103204 69 110 0.9 4.3 0.00 0.00 0.00 51 1015.6
20260509102704 68 93 0.9 4.3 0.00 0.00 0.00 52 1015.7
20260509102205 68 92 0.9 4.3 0.00 0.00 0.00 53 1015.6
20260509101704 68 78 0.9 5.2 0.00 0.00 0.00 54 1015.8
20260509100704 67 118 0.9 5.2 0.00 0.00 0.00 55 1015.7
20260509100204 68 113 1.7 3.5 0.00 0.00 0.00 54 1015.7
20260509095705 67 97 1.7 2.6 0.00 0.00 0.00 55 1015.8
20260509095204 67 219 0.9 2.6 0.00 0.00 0.00 58 1015.8
20260509094705 67 118 0.9 2.6 0.00 0.00 0.00 57 1015.7
20260509093704 67 79 0.0 2.6 0.00 0.00 0.00 59 1015.7
20260509093204 66 79 0.9 3.5 0.00 0.00 0.00 60 1015.8
20260509092704 66 79 0.0 3.5 0.00 0.00 0.00 62 1015.8
20260509091204 65 125 0.9 2.6 0.00 0.00 0.00 63 1015.8
20260509090704 65 125 0.0 3.5 0.00 0.00 0.00 64 1015.8
20260509090205 64 123 0.0 3.5 0.00 0.00 0.00 64 1015.8
20260509085705 64 123 0.0 3.5 0.00 0.00 0.00 66 1015.8
20260509085205 64 124 0.0 1.7 0.00 0.00 0.00 66 1015.8
20260509084705 63 123 0.0 2.6 0.00 0.00 0.00 67 1015.8
20260509083706 62 123 0.0 2.6 0.00 0.00 0.00 69 1015.9
20260509083205 62 123 0.0 2.6 0.00 0.00 0.00 71 1015.9
20260509082706 61 123 0.9 2.6 0.00 0.00 0.00 71 1016.0
20260509082205 61 123 0.9 2.6 0.00 0.00 0.00 72 1015.9
20260509081714 60 125 0.0 2.6 0.00 0.00 0.00 75 1016.0
20260509081204 60 125 0.0 2.6 0.00 0.00 0.00 76 1016.1
20260509080704 59 125 0.9 2.6 0.00 0.00 0.00 77 1016.1
20260509080204 58 127 0.0 2.6 0.00 0.00 0.00 78 1015.9
20260509075705 58 127 0.0 3.5 0.00 0.00 0.00 80 1015.9
20260509075204 57 128 0.9 3.5 0.00 0.00 0.00 81 1015.9
20260509074704 56 127 0.9 3.5 0.00 0.00 0.00 82 1015.9
20260509074204 56 127 0.0 3.5 0.00 0.00 0.00 83 1015.8
20260509073705 56 130 0.0 1.7 0.00 0.00 0.00 83 1015.8
20260509073205 55 130 0.9 0.9 0.00 0.00 0.00 81 1015.8
20260509072705 55 130 0.9 0.9 0.00 0.00 0.00 79 1015.8
20260509072205 54 133 0.0 0.9 0.00 0.00 0.00 78 1015.8
20260509071704 53 133 0.0 1.7 0.00 0.00 0.00 77 1015.8
20260509071204 53 133 0.0 1.7 0.00 0.00 0.00 76 1015.7
20260509070709 53 133 0.0 0.9 0.00 0.00 0.00 75 1015.8
20260509070204 52 133 0.0 1.7 0.00 0.00 0.00 74 1015.8
20260509065706 52 133 0.0 1.7 0.00 0.00 0.00 73 1015.7
20260509065205 51 133 0.0 1.7 0.00 0.00 0.00 72 1015.7
20260509064705 51 133 0.0 0.9 0.00 0.00 0.00 72 1015.7
20260509064204 51 133 0.0 0.9 0.00 0.00 0.00 71 1015.6
20260509063705 51 133 0.0 0.9 0.00 0.00 0.00 70 1015.6
20260509063203 50 133 0.0 0.9 0.00 0.00 0.00 70 1015.6
20260509062205 50 133 0.0 0.0 0.00 0.00 0.00 70 1015.6
20260509061204 49 133 0.0 0.0 0.00 0.00 0.00 71 1015.7
20260509060704 49 133 0.0 0.0 0.00 0.00 0.00 72 1015.8
20260509060204 48 133 0.0 0.0 0.00 0.00 0.00 72 1015.6
20260509055704 48 133 0.0 0.0 0.00 0.00 0.00 72 1015.6
20260509054704 47 133 0.0 0.0 0.00 0.00 0.00 72 1015.6
20260509054205 47 133 0.0 0.0 0.00 0.00 0.00 72 1015.6
20260509053704 47 133 0.0 0.0 0.00 0.00 0.00 72 1015.7
20260509052706 46 133 0.0 0.0 0.00 0.00 0.00 73 1015.6
20260509052204 46 133 0.0 0.0 0.00 0.00 0.00 74 1015.6
20260509051705 45 133 0.0 0.0 0.00 0.00 0.00 75 1015.6
20260509051204 45 133 0.0 0.0 0.00 0.00 0.00 76 1015.6
20260509050704 44 133 0.0 0.0 0.00 0.00 0.00 77 1015.6
20260509050205 44 133 0.0 0.0 0.00 0.00 0.00 77 1015.6
20260509045703 44 133 0.0 0.0 0.00 0.00 0.00 79 1015.5
20260509044705 44 133 0.0 0.0 0.00 0.00 0.00 80 1015.5
20260509044204 44 133 0.0 0.0 0.00 0.00 0.00 80 1015.6
20260509043704 44 133 0.0 0.0 0.00 0.00 0.00 80 1015.6
20260509043229 44 133 0.0 0.0 0.00 0.00 0.00 80 1015.5
20260509042704 44 133 0.0 0.0 0.00 0.00 0.00 80 1015.7
20260509042205 44 133 0.0 0.0 0.00 0.00 0.00 80 1015.5
20260509041204 44 133 0.0 0.0 0.00 0.00 0.00 81 1015.6
20260509040204 44 133 0.0 0.0 0.00 0.00 0.00 81 1015.6
20260509035704 44 133 0.0 0.0 0.00 0.00 0.00 81 1015.6
20260509035204 44 133 0.0 0.0 0.00 0.00 0.00 81 1015.6
20260509034704 44 133 0.0 0.0 0.00 0.00 0.00 81 1015.6
20260509034205 44 133 0.0 0.0 0.00 0.00 0.00 81 1015.5
20260509033704 45 133 0.0 0.0 0.00 0.00 0.00 81 1015.5
20260509033205 45 133 0.0 0.0 0.00 0.00 0.00 81 1015.5
20260509032705 45 133 0.0 0.0 0.00 0.00 0.00 81 1015.5
20260509032204 45 133 0.0 0.0 0.00 0.00 0.00 82 1015.4
20260509031705 45 133 0.0 0.0 0.00 0.00 0.00 82 1015.5
20260509031204 45 133 0.0 0.0 0.00 0.00 0.00 82 1015.4
20260509030704 45 133 0.0 0.0 0.00 0.00 0.00 82 1015.4
20260509030204 45 133 0.0 0.0 0.00 0.00 0.00 82 1015.4
20260509025704 45 133 0.0 0.0 0.00 0.00 0.00 82 1015.5
20260509025204 46 133 0.0 0.0 0.00 0.00 0.00 82 1015.6
20260509024705 46 133 0.0 0.0 0.00 0.00 0.00 82 1015.6
20260509024204 46 133 0.0 0.0 0.00 0.00 0.00 82 1015.7
20260509023704 46 133 0.0 0.0 0.00 0.00 0.00 82 1015.7
20260509023205 46 133 0.0 0.0 0.00 0.00 0.00 82 1015.6
20260509022204 46 133 0.0 0.0 0.00 0.00 0.00 82 1015.6
20260509021705 46 133 0.0 0.0 0.00 0.00 0.00 82 1015.6
20260509020705 47 133 0.0 0.0 0.00 0.00 0.00 83 1015.6
20260509015205 47 133 0.0 0.0 0.00 0.00 0.00 82 1015.6
20260509014704 47 133 0.0 0.0 0.00 0.00 0.00 82 1015.6
20260509014204 47 133 0.0 0.0 0.00 0.00 0.00 82 1015.7
20260509013705 47 133 0.0 0.0 0.00 0.00 0.00 82 1015.7
20260509013205 47 133 0.0 0.0 0.00 0.00 0.00 83 1015.7
20260509012704 47 133 0.0 0.0 0.00 0.00 0.00 83 1015.8
20260509012205 47 133 0.0 0.0 0.00 0.00 0.00 83 1015.7
20260509011705 48 133 0.0 0.0 0.00 0.00 0.00 83 1015.7
20260509011204 48 133 0.0 0.0 0.00 0.00 0.00 83 1015.7
20260509010204 48 133 0.0 0.0 0.00 0.00 0.00 83 1015.8
20260509005705 48 133 0.0 0.0 0.00 0.00 0.00 83 1015.7
20260509005204 48 133 0.0 0.0 0.00 0.00 0.00 83 1015.7
20260509004704 48 133 0.0 0.9 0.00 0.00 0.00 83 1015.7
20260509004204 48 133 0.0 0.9 0.00 0.00 0.00 83 1015.7
20260509003704 48 133 0.0 0.0 0.00 0.00 0.00 83 1015.8
20260509002204 49 133 0.0 0.0 0.00 0.00 0.00 83 1015.9
20260509001704 49 133 0.0 0.0 0.00 0.00 0.00 83 1015.8
20260509001204 49 133 0.0 0.0 0.00 0.00 0.00 83 1015.8
20260509000704 49 133 0.0 0.0 0.00 0.00 0.00 83 1015.8
20260509000204 49 133 0.0 0.0 0.00 0.00 0.00 83 1015.9
20260508235705 49 133 0.0 0.0 0.00 0.00 0.00 83 1015.8
20260508235204 49 133 0.0 0.0 0.00 0.00 0.00 83 1015.9
20260508234704 49 133 0.0 0.0 0.00 0.00 0.00 83 1015.9
20260508234204 49 133 0.0 0.0 0.00 0.00 0.00 83 1015.9